This is the latest recevied weather packets stored in our database for station/object KD8NVS-13. If no packets are shown the sender has not sent any weather packets the latest 10 day(s).
| Time | Temp. | Humidity | Pressure | Rain* | Wind** | Luminosity | Snow |
|---|---|---|---|---|---|---|---|
| 1777760484 | 8.89° C | 51% | 1007 hPa | 0 mm | - | 97 W/m² | - |
| 1777760175 | 8.89° C | 44% | 1007 hPa | 0 mm | - | 108 W/m² | - |
| 1777759872 | 9.44° C | 45% | 1006.7 hPa | 0 mm | - | 124 W/m² | - |
| 1777759569 | 8.89° C | 48% | 1006.7 hPa | 0 mm | - | 147 W/m² | - |
| 1777759265 | 8.89° C | 49% | 1006.7 hPa | 0 mm | - | 153 W/m² | - |
| 1777758962 | 9.44° C | 50% | 1007 hPa | 0 mm | - | 139 W/m² | - |
| 1777758659 | 9.44° C | 50% | 1006.7 hPa | 0 mm | - | 134 W/m² | - |
| 1777758356 | 9.44° C | 50% | 1007 hPa | 0 mm | - | 469 W/m² | - |
| 1777758053 | 9.44° C | 53% | 1007 hPa | 0 mm | - | 157 W/m² | - |
| 1777757750 | 8.89° C | 54% | 1007 hPa | 0 mm | - | 208 W/m² | - |
| 1777757448 | 8.89° C | 55% | 1007 hPa | 0 mm | - | 165 W/m² | - |
| 1777757146 | 8.89° C | 55% | 1007 hPa | 0 mm | - | 125 W/m² | - |
| 1777756844 | 9.44° C | 50% | 1007 hPa | 0 mm | - | 127 W/m² | - |
| 1777756539 | 8.89° C | 50% | 1006.7 hPa | 0 mm | - | 145 W/m² | - |
| 1777756237 | 9.44° C | 50% | 1006.7 hPa | 0 mm | - | 165 W/m² | - |
| 1777755933 | 8.89° C | 49% | 1006.7 hPa | 0 mm | - | 164 W/m² | - |
| 1777755631 | 8.89° C | 53% | 1006.7 hPa | 0 mm | - | 450 W/m² | - |
| 1777755327 | 8.89° C | 54% | 1006.7 hPa | 0 mm | - | 158 W/m² | - |
| 1777755024 | 8.89° C | 54% | 1006.7 hPa | 0 mm | - | 154 W/m² | - |
| 1777754721 | 8.89° C | 57% | 1006.7 hPa | 0 mm | - | 167 W/m² | - |
| 1777754419 | 8.89° C | 55% | 1006.7 hPa | 0 mm | - | 177 W/m² | - |
| 1777754115 | 9.44° C | 45% | 1006.7 hPa | 0 mm | - | 196 W/m² | - |
| 1777753813 | 9.44° C | 42% | 1006.7 hPa | 0 mm | - | 180 W/m² | - |
| 1777753508 | 10° C | 43% | 1006.7 hPa | 0 mm | - | 206 W/m² | - |
| 1777753207 | 9.44° C | 44% | 1006.7 hPa | 0 mm | - | 146 W/m² | - |
* Rain latest hour (hover to see other rain measurements)
** Current wind speed in m/s (hover to see current wind gust speed)